Time,TemperatureF,DewpointF,PressureIn,WindDirection,WindDirectionDegrees,WindSpeedMPH,WindSpeedGustMPH,Humidity,HourlyPrecipIn,Conditions,Clouds,dailyrainin,SoftwareType,DateUTC
2013-03-30 00:01:00,46.0,28.5,30.00,SW,220,0.0,0.0,50,0.00,,---,0.00,VWS V14.01,2013-03-30 07:01:00,
2013-03-30 00:07:00,45.7,28.1,30.00,SW,220,0.0,0.0,50,0.00,,---,0.00,VWS V14.01,2013-03-30 07:07:00,
2013-03-30 00:13:00,45.3,27.8,30.00,SW,220,0.0,0.0,50,0.00,,---,0.00,VWS V14.01,2013-03-30 07:13:00,
2013-03-30 00:19:00,45.1,28.1,30.00,SW,220,0.0,0.0,51,0.00,,---,0.00,VWS V14.01,2013-03-30 07:19:00,
2013-03-30 00:25:00,45.1,28.1,30.00,SW,220,0.0,0.0,51,0.00,,---,0.00,VWS V14.01,2013-03-30 07:25:00,
2013-03-30 00:31:00,44.8,28.2,30.00,SW,220,0.0,0.0,52,0.00,,---,0.00,VWS V14.01,2013-03-30 07:31:00,
2013-03-30 00:38:00,44.6,28.1,30.00,SW,220,0.0,0.0,52,0.00,,---,0.00,VWS V14.01,2013-03-30 07:38:00,
2013-03-30 00:43:00,44.4,28.4,30.00,SW,220,0.0,0.0,53,0.00,,---,0.00,VWS V14.01,2013-03-30 07:43:00,
2013-03-30 00:50:00,44.2,28.7,30.00,SW,220,0.0,0.0,54,0.00,,---,0.00,VWS V14.01,2013-03-30 07:50:00,
2013-03-30 00:56:00,44.1,28.9,30.00,SW,220,0.0,0.0,55,0.00,,---,0.00,VWS V14.01,2013-03-30 07:56:00,
2013-03-30 01:01:00,43.9,28.8,30.00,SW,220,0.0,0.0,55,0.00,,---,0.00,VWS V14.01,2013-03-30 08:01:00,
2013-03-30 01:07:00,43.7,29.0,30.00,SW,220,0.0,0.0,56,0.00,,---,0.00,VWS V14.01,2013-03-30 08:07:00,
2013-03-30 01:14:00,43.5,28.9,30.00,SW,220,0.0,0.0,56,0.00,,---,0.00,VWS V14.01,2013-03-30 08:14:00,
2013-03-30 01:20:00,43.3,28.7,30.00,SW,220,0.0,0.0,56,0.00,,---,0.00,VWS V14.01,2013-03-30 08:20:00,
2013-03-30 01:25:00,43.2,28.5,30.00,SW,220,0.0,0.0,56,0.00,,---,0.00,VWS V14.01,2013-03-30 08:25:00,
2013-03-30 01:32:00,43.0,28.4,30.00,SW,220,0.0,0.0,56,0.00,,---,0.00,VWS V14.01,2013-03-30 08:32:00,
2013-03-30 01:37:00,42.8,28.2,30.00,SW,220,0.0,0.0,56,0.00,,---,0.00,VWS V14.01,2013-03-30 08:37:00,
2013-03-30 01:43:00,42.4,28.3,30.00,SW,220,0.0,0.0,57,0.00,,---,0.00,VWS V14.01,2013-03-30 08:43:00,
2013-03-30 01:49:00,42.3,28.1,30.00,SW,220,0.0,0.0,57,0.00,,---,0.00,VWS V14.01,2013-03-30 08:49:00,
2013-03-30 01:56:00,42.1,28.0,30.00,SW,220,0.0,0.0,57,0.00,,---,0.00,VWS V14.01,2013-03-30 08:56:00,
2013-03-30 02:01:00,41.9,27.8,30.00,SW,220,0.0,0.0,57,0.00,,---,0.00,VWS V14.01,2013-03-30 09:01:00,
2013-03-30 02:07:00,41.7,28.5,30.00,SW,220,0.0,0.0,59,0.00,,---,0.00,VWS V14.01,2013-03-30 09:07:00,
2013-03-30 02:13:00,41.5,28.3,30.00,SW,220,0.0,0.0,59,0.00,,---,0.00,VWS V14.01,2013-03-30 09:13:00,
2013-03-30 02:20:00,41.4,28.1,30.00,SW,220,0.0,0.0,59,0.00,,---,0.00,VWS V14.01,2013-03-30 09:20:00,
2013-03-30 02:25:00,41.2,27.5,30.00,SW,220,0.0,0.0,58,0.00,,---,0.00,VWS V14.01,2013-03-30 09:25:00,
2013-03-30 02:31:00,41.0,27.4,30.00,SW,220,0.0,0.0,58,0.00,,---,0.00,VWS V14.01,2013-03-30 09:31:00,
2013-03-30 02:35:00,40.8,27.6,30.00,SW,220,0.0,0.0,59,0.00,,---,0.00,VWS V14.01,2013-03-30 09:35:00,
2013-03-30 02:42:00,40.6,27.5,30.00,SW,220,0.0,0.0,59,0.00,,---,0.00,VWS V14.01,2013-03-30 09:42:00,
2013-03-30 02:47:00,40.5,27.3,30.00,SW,220,0.0,0.0,59,0.00,,---,0.00,VWS V14.01,2013-03-30 09:47:00,
2013-03-30 02:53:00,40.5,27.7,30.00,SW,220,0.0,0.0,60,0.00,,---,0.00,VWS V14.01,2013-03-30 09:53:00,
2013-03-30 02:59:00,40.3,27.9,30.00,SW,220,0.0,0.0,61,0.00,,---,0.00,VWS V14.01,2013-03-30 09:59:00,
2013-03-30 03:05:00,40.3,28.3,30.00,SW,220,0.0,0.0,62,0.00,,---,0.00,VWS V14.01,2013-03-30 10:05:00,
2013-03-30 03:12:00,39.9,28.0,30.00,SW,220,0.0,0.0,62,0.00,,---,0.00,VWS V14.01,2013-03-30 10:12:00,
2013-03-30 03:17:00,39.9,28.0,30.00,SW,220,0.0,0.0,62,0.00,,---,0.00,VWS V14.01,2013-03-30 10:17:00,
2013-03-30 03:24:00,39.7,28.2,30.00,SW,220,0.0,0.0,63,0.00,,---,0.00,VWS V14.01,2013-03-30 10:24:00,
2013-03-30 03:29:00,39.6,28.0,30.00,SW,220,0.0,0.0,63,0.00,,---,0.00,VWS V14.01,2013-03-30 10:29:00,
2013-03-30 03:35:00,39.4,28.2,30.00,SW,220,0.0,0.0,64,0.00,,---,0.00,VWS V14.01,2013-03-30 10:35:00,
2013-03-30 03:41:00,39.2,27.7,30.00,SW,220,0.0,0.0,63,0.00,,---,0.00,VWS V14.01,2013-03-30 10:41:00,
2013-03-30 03:47:00,39.2,28.1,30.00,SW,220,0.0,0.0,64,0.00,,---,0.00,VWS V14.01,2013-03-30 10:47:00,
2013-03-30 03:53:00,39.0,27.9,30.00,SW,220,0.0,0.0,64,0.00,,---,0.00,VWS V14.01,2013-03-30 10:53:00,
2013-03-30 03:59:00,38.8,27.3,30.00,SW,220,0.0,0.0,63,0.00,,---,0.00,VWS V14.01,2013-03-30 10:59:00,
2013-03-30 04:06:00,38.7,27.2,30.00,SW,220,0.0,0.0,63,0.00,,---,0.00,VWS V14.01,2013-03-30 11:06:00,
2013-03-30 04:11:00,38.7,27.2,30.00,SW,220,0.0,0.0,63,0.00,,---,0.00,VWS V14.01,2013-03-30 11:11:00,
2013-03-30 04:17:00,38.5,27.0,30.00,SW,220,0.0,0.0,63,0.00,,---,0.00,VWS V14.01,2013-03-30 11:17:00,
2013-03-30 04:23:00,38.3,26.8,30.00,SW,220,0.0,0.0,63,0.00,,---,0.00,VWS V14.01,2013-03-30 11:23:00,
2013-03-30 04:30:00,38.1,26.6,30.00,SW,220,0.0,0.0,63,0.00,,---,0.00,VWS V14.01,2013-03-30 11:30:00,
2013-03-30 04:36:00,38.1,27.0,30.00,SW,220,0.0,0.0,64,0.00,,---,0.00,VWS V14.01,2013-03-30 11:36:00,
2013-03-30 04:41:00,38.3,27.2,30.00,SW,220,0.0,0.0,64,0.00,,---,0.00,VWS V14.01,2013-03-30 11:41:00,
2013-03-30 04:48:00,38.3,27.6,30.00,SW,220,0.0,0.0,65,0.00,,---,0.00,VWS V14.01,2013-03-30 11:48:00,
2013-03-30 04:54:00,38.3,27.6,30.00,SW,220,0.0,0.0,65,0.00,,---,0.00,VWS V14.01,2013-03-30 11:54:00,
2013-03-30 04:59:00,38.3,27.6,30.00,SW,220,0.0,0.0,65,0.00,,---,0.00,VWS V14.01,2013-03-30 11:59:00,
2013-03-30 05:05:00,38.1,27.4,30.00,SW,220,0.0,0.0,65,0.00,,---,0.00,VWS V14.01,2013-03-30 12:05:00,
2013-03-30 05:11:00,37.9,27.2,30.00,SW,220,0.0,0.0,65,0.00,,---,0.00,VWS V14.01,2013-03-30 12:11:00,
2013-03-30 05:18:00,37.9,27.2,30.00,SW,220,0.0,0.0,65,0.00,,---,0.00,VWS V14.01,2013-03-30 12:18:00,
2013-03-30 05:23:00,37.9,27.2,30.00,SW,220,0.0,0.0,65,0.00,,---,0.00,VWS V14.01,2013-03-30 12:23:00,
2013-03-30 05:29:00,38.1,27.4,30.00,SW,220,0.0,0.0,65,0.00,,---,0.00,VWS V14.01,2013-03-30 12:29:00,
2013-03-30 05:35:00,38.1,27.8,30.00,SW,220,0.0,0.0,66,0.00,,---,0.00,VWS V14.01,2013-03-30 12:35:00,
2013-03-30 05:41:00,38.1,27.8,30.00,SW,220,0.0,0.0,66,0.00,,---,0.00,VWS V14.01,2013-03-30 12:41:00,
2013-03-30 05:47:00,38.1,27.8,30.00,SW,220,0.0,0.0,66,0.00,,---,0.00,VWS V14.01,2013-03-30 12:47:00,
2013-03-30 05:53:00,37.9,27.6,30.00,SW,220,0.0,0.0,66,0.00,,---,0.00,VWS V14.01,2013-03-30 12:53:00,
2013-03-30 06:00:00,38.1,28.1,30.00,SW,220,0.0,0.0,67,0.00,,---,0.00,VWS V14.01,2013-03-30 13:00:00,
2013-03-30 06:05:00,38.1,28.1,30.00,SW,220,0.0,0.0,67,0.00,,---,0.00,VWS V14.01,2013-03-30 13:05:00,
2013-03-30 06:11:00,37.9,28.0,30.00,SW,220,0.0,0.0,67,0.00,,---,0.00,VWS V14.01,2013-03-30 13:11:00,
2013-03-30 06:18:00,37.9,27.6,30.00,SW,220,0.0,0.0,66,0.00,,---,0.00,VWS V14.01,2013-03-30 13:18:00,
2013-03-30 06:23:00,37.9,28.0,30.00,SW,220,0.0,0.0,67,0.00,,---,0.00,VWS V14.01,2013-03-30 13:23:00,
2013-03-30 06:29:00,37.9,28.0,30.00,SW,220,0.0,0.0,67,0.00,,---,0.00,VWS V14.01,2013-03-30 13:29:00,
2013-03-30 06:36:00,37.9,28.0,30.00,SW,220,0.0,0.0,67,0.00,,---,0.00,VWS V14.01,2013-03-30 13:36:00,
2013-03-30 06:42:00,38.1,28.1,30.00,SW,220,0.0,0.0,67,0.00,,---,0.00,VWS V14.01,2013-03-30 13:42:00,
2013-03-30 06:47:00,38.1,28.5,30.00,SW,220,0.0,0.0,68,0.00,,---,0.00,VWS V14.01,2013-03-30 13:47:00,
2013-03-30 06:53:00,38.1,28.5,30.00,SW,220,0.0,0.0,68,0.00,,---,0.00,VWS V14.01,2013-03-30 13:53:00,
2013-03-30 07:00:00,38.1,28.5,30.00,SW,220,0.0,0.0,68,0.00,,---,0.00,VWS V14.01,2013-03-30 14:00:00,
2013-03-30 07:05:00,37.9,28.3,30.00,SW,220,0.0,0.0,68,0.00,,---,0.00,VWS V14.01,2013-03-30 14:05:00,
2013-03-30 07:11:00,38.1,28.5,30.00,SW,220,0.0,0.0,68,0.00,,---,0.00,VWS V14.01,2013-03-30 14:11:00,
2013-03-30 07:17:00,38.1,28.9,30.00,SW,220,0.0,0.0,69,0.00,,---,0.00,VWS V14.01,2013-03-30 14:17:00,
2013-03-30 07:24:00,38.1,28.9,30.00,SW,220,0.0,0.0,69,0.00,,---,0.00,VWS V14.01,2013-03-30 14:24:00,
2013-03-30 07:29:00,38.3,29.0,30.00,SW,220,0.0,0.0,69,0.00,,---,0.00,VWS V14.01,2013-03-30 14:29:00,
2013-03-30 07:35:00,38.3,29.4,30.00,SW,220,0.0,0.0,70,0.00,,---,0.00,VWS V14.01,2013-03-30 14:35:00,
2013-03-30 07:41:00,38.5,29.6,30.00,SW,230,0.0,0.0,70,0.00,,---,0.00,VWS V14.01,2013-03-30 14:41:00,
2013-03-30 07:47:00,38.8,30.6,30.00,SW,225,0.0,0.0,72,0.00,,---,0.00,VWS V14.01,2013-03-30 14:47:00,
2013-03-30 07:53:00,39.4,31.5,29.97,SW,225,0.0,0.0,73,0.00,,---,0.00,VWS V14.01,2013-03-30 14:53:00,
2013-03-30 07:59:00,39.9,32.3,29.97,SSE,153,0.0,0.0,74,0.00,,---,0.00,VWS V14.01,2013-03-30 14:59:00,
2013-03-30 08:05:00,40.3,33.3,29.97,SE,142,0.0,2.2,76,0.00,,---,0.00,VWS V14.01,2013-03-30 15:05:00,
2013-03-30 08:11:00,40.3,33.3,29.97,SSE,147,0.0,0.0,76,0.00,,---,0.00,VWS V14.01,2013-03-30 15:11:00,
2013-03-30 08:18:00,40.6,33.7,29.97,SSE,147,0.0,0.0,76,0.00,,---,0.00,VWS V14.01,2013-03-30 15:18:00,
2013-03-30 08:24:00,40.6,34.0,29.97,South,186,0.0,0.0,77,0.00,,---,0.00,VWS V14.01,2013-03-30 15:24:00,
2013-03-30 08:29:00,41.0,34.3,29.97,South,185,0.0,0.0,77,0.00,,---,0.00,VWS V14.01,2013-03-30 15:29:00,
2013-03-30 08:35:00,41.5,34.9,29.97,SSW,194,0.0,0.0,77,0.00,,---,0.00,VWS V14.01,2013-03-30 15:35:00,
2013-03-30 08:42:00,41.5,34.5,29.97,SE,143,0.0,0.0,76,0.00,,---,0.00,VWS V14.01,2013-03-30 15:42:00,
2013-03-30 08:47:00,41.7,34.7,29.97,SSE,150,0.0,4.9,76,0.00,,---,0.00,VWS V14.01,2013-03-30 15:47:00,
2013-03-30 08:53:00,41.7,34.1,29.97,East,82,0.0,0.0,74,0.00,,---,0.00,VWS V14.01,2013-03-30 15:53:00,
2013-03-30 08:59:00,41.7,33.7,29.97,East,82,0.0,0.0,73,0.00,,---,0.00,VWS V14.01,2013-03-30 15:59:00,
2013-03-30 09:05:00,41.9,33.5,29.97,SE,129,0.0,0.0,72,0.00,,---,0.00,VWS V14.01,2013-03-30 16:05:00,
2013-03-30 09:11:00,41.9,33.5,29.97,SE,129,0.0,0.0,72,0.00,,---,0.00,VWS V14.01,2013-03-30 16:11:00,
2013-03-30 09:17:00,42.1,33.7,29.97,SE,129,0.0,0.0,72,0.00,,---,0.00,VWS V14.01,2013-03-30 16:17:00,
2013-03-30 09:23:00,42.4,34.4,29.97,SE,129,0.0,0.0,73,0.00,,---,0.00,VWS V14.01,2013-03-30 16:23:00,
2013-03-30 09:30:00,42.8,34.8,29.97,SE,129,0.0,0.0,73,0.00,,---,0.00,VWS V14.01,2013-03-30 16:30:00,
2013-03-30 09:35:00,43.2,34.8,29.97,SW,234,0.0,2.7,72,0.00,,---,0.00,VWS V14.01,2013-03-30 16:35:00,
2013-03-30 09:42:00,43.9,34.7,29.97,South,170,2.7,2.7,70,0.00,,---,0.00,VWS V14.01,2013-03-30 16:42:00,
2013-03-30 09:48:00,44.6,33.6,29.97,NNW,328,0.0,2.2,65,0.00,,---,0.00,VWS V14.01,2013-03-30 16:48:00,
2013-03-30 09:53:00,45.9,31.5,29.97,West,276,0.0,3.6,57,0.00,,---,0.00,VWS V14.01,2013-03-30 16:53:00,
2013-03-30 09:59:00,46.9,30.2,29.97,West,259,2.7,4.0,52,0.00,,---,0.00,VWS V14.01,2013-03-30 16:59:00,
2013-03-30 10:06:00,47.3,29.1,29.97,West,279,0.0,0.0,49,0.00,,---,0.00,VWS V14.01,2013-03-30 17:06:00,
2013-03-30 10:12:00,48.4,29.6,29.97,WSW,243,0.0,3.1,48,0.00,,---,0.00,VWS V14.01,2013-03-30 17:12:00,
2013-03-30 10:17:00,49.3,29.4,29.97,WSW,240,0.0,2.2,46,0.00,,---,0.00,VWS V14.01,2013-03-30 17:17:00,
2013-03-30 10:24:00,50.4,28.2,29.97,WNW,289,0.0,3.1,42,0.00,,---,0.00,VWS V14.01,2013-03-30 17:24:00,
2013-03-30 10:30:00,50.7,27.3,29.97,East,98,0.0,3.1,40,0.00,,---,0.00,VWS V14.01,2013-03-30 17:30:00,
2013-03-30 10:35:00,51.1,28.8,29.97,NNE,13,4.0,5.4,42,0.00,,---,0.00,VWS V14.01,2013-03-30 17:35:00,
2013-03-30 10:41:00,51.6,28.7,29.97,South,183,3.1,3.1,41,0.00,,---,0.00,VWS V14.01,2013-03-30 17:41:00,
2013-03-30 10:48:00,52.7,29.1,29.97,North,10,0.0,4.9,40,0.00,,---,0.00,VWS V14.01,2013-03-30 17:48:00,
2013-03-30 10:53:00,53.2,28.9,29.97,North,6,2.2,3.6,39,0.00,,---,0.00,VWS V14.01,2013-03-30 17:53:00,
2013-03-30 10:59:00,54.5,29.4,29.97,NNW,345,3.6,6.7,38,0.00,,---,0.00,VWS V14.01,2013-03-30 17:59:00,
2013-03-30 11:05:00,54.7,28.9,29.97,NE,35,3.1,3.6,37,0.00,,---,0.00,VWS V14.01,2013-03-30 18:05:00,
2013-03-30 11:12:00,55.0,28.6,29.97,South,183,3.6,3.6,36,0.00,,---,0.00,VWS V14.01,2013-03-30 18:12:00,
2013-03-30 11:17:00,55.9,28.7,29.97,North,357,4.0,4.0,35,0.00,,---,0.00,VWS V14.01,2013-03-30 18:17:00,
2013-03-30 11:23:00,56.8,27.3,29.94,NNE,15,0.0,3.6,32,0.00,,---,0.00,VWS V14.01,2013-03-30 18:23:00,
2013-03-30 11:29:00,57.0,26.7,29.94,East,88,0.0,0.0,31,0.00,,---,0.00,VWS V14.01,2013-03-30 18:29:00,
2013-03-30 11:35:00,56.8,26.5,29.94,East,84,0.0,3.6,31,0.00,,---,0.00,VWS V14.01,2013-03-30 18:35:00,
2013-03-30 11:41:00,57.6,26.4,29.94,SW,233,3.1,4.0,30,0.00,,---,0.00,VWS V14.01,2013-03-30 18:41:00,
2013-03-30 11:48:00,58.1,26.9,29.94,North,11,4.0,4.0,30,0.00,,---,0.00,VWS V14.01,2013-03-30 18:48:00,
2013-03-30 11:54:00,59.0,26.8,29.94,North,4,0.0,4.0,29,0.00,,---,0.00,VWS V14.01,2013-03-30 18:54:00,
2013-03-30 11:59:00,59.9,27.6,29.94,West,262,3.6,4.9,29,0.00,,---,0.00,VWS V14.01,2013-03-30 18:59:00,
2013-03-30 12:05:00,60.1,26.9,29.94,SSW,199,2.7,4.0,28,0.00,,---,0.00,VWS V14.01,2013-03-30 19:05:00,
2013-03-30 12:12:00,61.0,26.8,29.94,South,173,2.7,2.7,27,0.00,,---,0.00,VWS V14.01,2013-03-30 19:12:00,
2013-03-30 12:18:00,60.8,26.6,29.94,North,6,2.2,4.0,27,0.00,,---,0.00,VWS V14.01,2013-03-30 19:18:00,
2013-03-30 12:23:00,61.2,26.0,29.94,South,173,2.7,3.6,26,0.00,,---,0.00,VWS V14.01,2013-03-30 19:23:00,
2013-03-30 12:30:00,61.7,27.4,29.94,NNE,33,3.1,4.0,27,0.00,,---,0.00,VWS V14.01,2013-03-30 19:30:00,
2013-03-30 12:35:00,62.6,27.3,29.94,NNW,328,2.7,4.0,26,0.00,,---,0.00,VWS V14.01,2013-03-30 19:35:00,
2013-03-30 12:41:00,63.0,27.6,29.94,NNE,17,3.6,7.6,26,0.00,,---,0.00,VWS V14.01,2013-03-30 19:41:00,
2013-03-30 12:47:00,63.3,26.9,29.94,NNW,338,0.0,3.6,25,0.00,,---,0.00,VWS V14.01,2013-03-30 19:47:00,
2013-03-30 12:54:00,63.7,27.2,29.94,NNE,33,3.1,4.5,25,0.00,,---,0.00,VWS V14.01,2013-03-30 19:54:00,
2013-03-30 12:59:00,64.0,26.5,29.94,NW,312,0.0,4.5,24,0.00,,---,0.00,VWS V14.01,2013-03-30 19:59:00,
2013-03-30 13:05:00,64.2,26.7,29.94,NNE,29,2.7,5.8,24,0.00,,---,0.00,VWS V14.01,2013-03-30 20:05:00,
2013-03-30 13:12:00,64.6,27.0,29.94,WNW,293,2.2,5.4,24,0.00,,---,0.00,VWS V14.01,2013-03-30 20:12:00,
2013-03-30 13:17:00,65.3,27.6,29.94,WNW,282,4.0,4.0,24,0.00,,---,0.00,VWS V14.01,2013-03-30 20:17:00,
2013-03-30 13:23:00,65.5,27.8,29.91,North,4,4.0,5.4,24,0.00,,---,0.00,VWS V14.01,2013-03-30 20:23:00,
2013-03-30 13:29:00,65.5,26.7,29.91,East,83,2.2,4.0,23,0.00,,---,0.00,VWS V14.01,2013-03-30 20:29:00,
2013-03-30 13:36:00,66.2,27.3,29.91,NNW,329,4.0,5.4,23,0.00,,---,0.00,VWS V14.01,2013-03-30 20:36:00,
2013-03-30 13:42:00,66.2,27.3,29.91,NW,306,0.0,4.0,23,0.00,,---,0.00,VWS V14.01,2013-03-30 20:42:00,
2013-03-30 13:47:00,66.7,27.8,29.91,WSW,252,0.0,2.7,23,0.00,,---,0.00,VWS V14.01,2013-03-30 20:47:00,
2013-03-30 13:53:00,67.1,28.1,29.91,WSW,252,0.0,4.9,23,0.00,,---,0.00,VWS V14.01,2013-03-30 20:53:00,
2013-03-30 14:00:00,67.3,28.2,29.91,NW,315,3.1,5.4,23,0.00,,---,0.00,VWS V14.01,2013-03-30 21:00:00,
2013-03-30 14:05:00,67.1,27.0,29.91,NW,324,3.1,4.9,22,0.00,,---,0.00,VWS V14.01,2013-03-30 21:05:00,
2013-03-30 14:11:00,67.5,28.4,29.91,East,84,0.0,4.0,23,0.00,,---,0.00,VWS V14.01,2013-03-30 21:11:00,
2013-03-30 14:18:00,68.0,27.8,29.91,NNE,12,3.6,4.0,22,0.00,,---,0.00,VWS V14.01,2013-03-30 21:18:00,
2013-03-30 14:24:00,67.8,28.7,29.91,West,263,0.0,3.6,23,0.00,,---,0.00,VWS V14.01,2013-03-30 21:24:00,
2013-03-30 14:29:00,67.8,27.6,29.91,North,357,2.7,4.0,22,0.00,,---,0.00,VWS V14.01,2013-03-30 21:29:00,
2013-03-30 14:35:00,68.7,28.4,29.91,West,275,0.0,3.6,22,0.00,,---,0.00,VWS V14.01,2013-03-30 21:35:00,
2013-03-30 14:41:00,68.5,28.2,29.88,West,276,2.2,4.0,22,0.00,,---,0.00,VWS V14.01,2013-03-30 21:41:00,
2013-03-30 14:47:00,68.2,27.9,29.88,NNW,342,4.0,4.0,22,0.00,,---,0.00,VWS V14.01,2013-03-30 21:47:00,
2013-03-30 14:53:00,68.5,25.9,29.88,NNE,14,2.7,5.4,20,0.00,,---,0.00,VWS V14.01,2013-03-30 21:53:00,
2013-03-30 14:59:00,68.9,28.5,29.88,SSW,194,0.0,4.0,22,0.00,,---,0.00,VWS V14.01,2013-03-30 21:59:00,
2013-03-30 15:06:00,68.5,25.9,29.88,SSW,213,3.1,4.0,20,0.00,,---,0.00,VWS V14.01,2013-03-30 22:06:00,
2013-03-30 15:11:00,68.7,26.1,29.88,SSE,166,3.6,3.6,20,0.00,,---,0.00,VWS V14.01,2013-03-30 22:11:00,
2013-03-30 15:17:00,68.4,25.8,29.88,NW,310,2.7,4.0,20,0.00,,---,0.00,VWS V14.01,2013-03-30 22:17:00,
2013-03-30 15:23:00,68.7,26.1,29.88,SW,232,4.0,4.0,20,0.00,,---,0.00,VWS V14.01,2013-03-30 22:23:00,
2013-03-30 15:29:00,68.7,26.1,29.88,WSW,241,2.7,4.0,20,0.00,,---,0.00,VWS V14.01,2013-03-30 22:29:00,
2013-03-30 15:35:00,69.4,26.7,29.88,NNE,19,2.7,3.6,20,0.00,,---,0.00,VWS V14.01,2013-03-30 22:35:00,
2013-03-30 15:42:00,69.4,26.7,29.88,WNW,292,0.0,0.0,20,0.00,,---,0.00,VWS V14.01,2013-03-30 22:42:00,
2013-03-30 15:48:00,68.9,26.2,29.88,West,261,4.0,4.0,20,0.00,,---,0.00,VWS V14.01,2013-03-30 22:48:00,
2013-03-30 15:53:00,68.9,26.2,29.85,SSW,212,2.7,5.8,20,0.00,,---,0.00,VWS V14.01,2013-03-30 22:53:00,
2013-03-30 16:00:00,68.7,26.1,29.85,North,6,0.0,5.4,20,0.00,,---,0.00,VWS V14.01,2013-03-30 23:00:00,
2013-03-30 16:05:00,69.3,26.5,29.85,North,357,3.1,3.1,20,0.00,,---,0.00,VWS V14.01,2013-03-30 23:05:00,
2013-03-30 16:11:00,68.7,28.4,29.85,South,186,2.2,4.0,22,0.00,,---,0.00,VWS V14.01,2013-03-30 23:11:00,
2013-03-30 16:17:00,68.2,25.6,29.85,NNW,330,0.0,3.6,20,0.00,,---,0.00,VWS V14.01,2013-03-30 23:17:00,
2013-03-30 16:23:00,68.0,25.5,29.85,West,264,2.7,3.1,20,0.00,,---,0.00,VWS V14.01,2013-03-30 23:23:00,
2013-03-30 16:29:00,68.0,25.5,29.85,NNW,333,2.2,3.1,20,0.00,,---,0.00,VWS V14.01,2013-03-30 23:29:00,
2013-03-30 16:35:00,67.8,27.6,29.85,NNW,340,0.0,5.8,22,0.00,,---,0.00,VWS V14.01,2013-03-30 23:35:00,
2013-03-30 16:42:00,67.5,25.0,29.85,SSW,193,0.0,4.9,20,0.00,,---,0.00,VWS V14.01,2013-03-30 23:42:00,
2013-03-30 16:47:00,67.6,25.2,29.85,SSW,196,0.0,0.0,20,0.00,,---,0.00,VWS V14.01,2013-03-30 23:47:00,
2013-03-30 16:53:00,67.5,25.0,29.85,NW,320,0.0,0.0,20,0.00,,---,0.00,VWS V14.01,2013-03-30 23:53:00,
2013-03-30 16:59:00,67.1,24.7,29.85,West,275,0.0,2.7,20,0.00,,---,0.00,VWS V14.01,2013-03-30 23:59:00,
2013-03-30 17:06:00,67.1,27.0,29.85,SSW,197,4.9,4.9,22,0.00,,---,0.00,VWS V14.01,2013-03-31 00:06:00,
2013-03-30 17:11:00,66.7,24.4,29.85,ENE,76,0.0,0.0,20,0.00,,---,0.00,VWS V14.01,2013-03-31 00:11:00,
2013-03-30 17:17:00,66.6,26.6,29.85,West,270,0.0,3.6,22,0.00,,---,0.00,VWS V14.01,2013-03-31 00:17:00,
2013-03-30 17:24:00,66.0,27.2,29.85,South,187,0.0,0.0,23,0.00,,---,0.00,VWS V14.01,2013-03-31 00:24:00,
2013-03-30 17:30:00,65.5,26.7,29.85,NE,49,0.0,0.0,23,0.00,,---,0.00,VWS V14.01,2013-03-31 00:30:00,
2013-03-30 17:35:00,64.8,26.1,29.85,North,6,2.2,4.0,23,0.00,,---,0.00,VWS V14.01,2013-03-31 00:35:00,
2013-03-30 17:41:00,64.4,25.8,29.83,South,181,3.6,3.6,23,0.00,,---,0.00,VWS V14.01,2013-03-31 00:41:00,
2013-03-30 17:48:00,63.9,25.4,29.83,NE,47,0.0,0.0,23,0.00,,---,0.00,VWS V14.01,2013-03-31 00:48:00,
2013-03-30 17:54:00,63.7,25.2,29.83,East,79,0.0,0.0,23,0.00,,---,0.00,VWS V14.01,2013-03-31 00:54:00,
2013-03-30 17:59:00,63.3,25.9,29.83,ENE,57,0.0,3.6,24,0.00,,---,0.00,VWS V14.01,2013-03-31 00:59:00,
2013-03-30 18:06:00,63.0,25.6,29.83,ENE,77,2.2,2.7,24,0.00,,---,0.00,VWS V14.01,2013-03-31 01:06:00,
2013-03-30 18:12:00,62.4,25.2,29.83,ENE,73,2.2,4.9,24,0.00,,---,0.00,VWS V14.01,2013-03-31 01:12:00,
2013-03-30 18:17:00,62.1,24.9,29.83,NE,54,3.6,3.6,24,0.00,,---,0.00,VWS V14.01,2013-03-31 01:17:00,
2013-03-30 18:23:00,61.9,24.7,29.83,SSE,158,0.0,5.4,24,0.00,,---,0.00,VWS V14.01,2013-03-31 01:23:00,
2013-03-30 18:29:00,61.7,24.6,29.83,East,88,0.0,6.3,24,0.00,,---,0.00,VWS V14.01,2013-03-31 01:29:00,
2013-03-30 18:36:00,61.7,24.6,29.83,SSE,155,3.6,3.6,24,0.00,,---,0.00,VWS V14.01,2013-03-31 01:36:00,
2013-03-30 18:41:00,61.5,24.4,29.83,East,92,0.0,3.1,24,0.00,,---,0.00,VWS V14.01,2013-03-31 01:41:00,
2013-03-30 18:48:00,61.3,24.3,29.83,SSE,152,0.0,0.0,24,0.00,,---,0.00,VWS V14.01,2013-03-31 01:48:00,
2013-03-30 18:54:00,61.0,24.0,29.83,East,89,4.0,4.0,24,0.00,,---,0.00,VWS V14.01,2013-03-31 01:54:00,
2013-03-30 18:59:00,60.6,23.6,29.83,SSE,165,6.3,6.3,24,0.00,,---,0.00,VWS V14.01,2013-03-31 01:59:00,
2013-03-30 19:05:00,60.3,24.3,29.83,ENE,75,0.0,0.0,25,0.00,,---,0.00,VWS V14.01,2013-03-31 02:05:00,
2013-03-30 19:12:00,59.9,24.0,29.83,SE,126,2.7,5.4,25,0.00,,---,0.00,VWS V14.01,2013-03-31 02:12:00,
2013-03-30 19:18:00,59.5,23.7,29.83,East,91,0.0,5.8,25,0.00,,---,0.00,VWS V14.01,2013-03-31 02:18:00,
2013-03-30 19:23:00,59.4,23.6,29.83,East,92,0.0,4.0,25,0.00,,---,0.00,VWS V14.01,2013-03-31 02:23:00,
2013-03-30 19:30:00,59.2,23.4,29.83,ESE,113,0.0,4.9,25,0.00,,---,0.00,VWS V14.01,2013-03-31 02:30:00,
2013-03-30 19:36:00,58.8,24.0,29.83,South,174,0.0,0.0,26,0.00,,---,0.00,VWS V14.01,2013-03-31 02:36:00,
2013-03-30 19:41:00,58.3,23.6,29.83,SSE,167,2.2,2.2,26,0.00,,---,0.00,VWS V14.01,2013-03-31 02:41:00,
2013-03-30 19:47:00,58.1,23.4,29.83,East,87,0.0,2.7,26,0.00,,---,0.00,VWS V14.01,2013-03-31 02:47:00,
2013-03-30 19:54:00,57.7,23.1,29.83,South,177,0.0,0.0,26,0.00,,---,0.00,VWS V14.01,2013-03-31 02:54:00,
2013-03-30 19:59:00,57.7,23.1,29.83,ESE,119,0.0,3.6,26,0.00,,---,0.00,VWS V14.01,2013-03-31 02:59:00,
2013-03-30 20:05:00,57.7,23.1,29.83,SSW,201,3.1,8.1,26,0.00,,---,0.00,VWS V14.01,2013-03-31 03:05:00,
2013-03-30 20:11:00,57.9,23.3,29.83,ESE,108,2.7,7.6,26,0.00,,---,0.00,VWS V14.01,2013-03-31 03:11:00,
2013-03-30 20:17:00,57.6,23.0,29.83,NNE,13,0.0,4.0,26,0.00,,---,0.00,VWS V14.01,2013-03-31 03:17:00,
2013-03-30 20:23:00,57.4,22.8,29.83,ESE,112,2.2,3.1,26,0.00,,---,0.00,VWS V14.01,2013-03-31 03:23:00,
2013-03-30 20:29:00,57.2,22.6,29.83,ESE,112,2.2,3.6,26,0.00,,---,0.00,VWS V14.01,2013-03-31 03:29:00,
2013-03-30 20:35:00,56.7,23.1,29.83,NE,47,0.0,0.0,27,0.00,,---,0.00,VWS V14.01,2013-03-31 03:35:00,
2013-03-30 20:42:00,56.3,22.8,29.83,SE,127,0.0,5.8,27,0.00,,---,0.00,VWS V14.01,2013-03-31 03:42:00,
2013-03-30 20:47:00,56.1,24.3,29.83,NNE,18,2.7,3.6,29,0.00,,---,0.00,VWS V14.01,2013-03-31 03:47:00,
2013-03-30 20:53:00,55.9,24.2,29.83,SSW,210,0.0,4.0,29,0.00,,---,0.00,VWS V14.01,2013-03-31 03:53:00,
2013-03-30 21:00:00,55.6,26.2,29.83,ESE,117,2.2,5.8,32,0.00,,---,0.00,VWS V14.01,2013-03-31 04:00:00,
2013-03-30 21:02:00,55.6,27.0,29.83,SSW,197,0.0,2.2,33,0.00,,---,0.00,VWS V14.01,2013-03-31 04:02:00,
2013-03-30 21:04:00,55.2,26.6,29.83,NE,51,3.1,3.1,33,0.00,,---,0.00,VWS V14.01,2013-03-31 04:04:00,
2013-03-30 21:05:00,55.2,27.4,29.83,NE,51,0.0,3.1,34,0.00,,---,0.00,VWS V14.01,2013-03-31 04:05:00,
2013-03-30 21:12:00,54.9,27.8,29.83,ESE,110,0.0,0.0,35,0.00,,---,0.00,VWS V14.01,2013-03-31 04:12:00,
2013-03-30 21:17:00,54.7,28.3,29.83,NNE,19,2.7,4.0,36,0.00,,---,0.00,VWS V14.01,2013-03-31 04:17:00,
2013-03-30 21:24:00,54.7,28.3,29.83,North,9,2.2,3.6,36,0.00,,---,0.00,VWS V14.01,2013-03-31 04:24:00,
2013-03-30 21:29:00,54.5,28.1,29.83,NW,308,3.1,5.4,36,0.00,,---,0.00,VWS V14.01,2013-03-31 04:29:00,
2013-03-30 21:36:00,54.5,28.1,29.83,SE,132,3.6,4.9,36,0.00,,---,0.00,VWS V14.01,2013-03-31 04:36:00,
2013-03-30 21:41:00,54.5,28.1,29.83,SW,215,0.0,4.9,36,0.00,,---,0.00,VWS V14.01,2013-03-31 04:41:00,
2013-03-30 21:47:00,54.5,28.1,29.83,SSW,193,2.7,4.0,36,0.00,,---,0.00,VWS V14.01,2013-03-31 04:47:00,
2013-03-30 21:53:00,54.0,28.3,29.83,NE,47,2.2,4.0,37,0.00,,---,0.00,VWS V14.01,2013-03-31 04:53:00,
2013-03-30 22:00:00,53.8,28.1,29.83,NNE,23,3.1,4.5,37,0.00,,---,0.00,VWS V14.01,2013-03-31 05:00:00,
2013-03-30 22:05:00,53.6,28.0,29.83,SW,218,0.0,3.6,37,0.00,,---,0.00,VWS V14.01,2013-03-31 05:05:00,
2013-03-30 22:11:00,53.4,27.8,29.83,NNE,14,2.2,4.0,37,0.00,,---,0.00,VWS V14.01,2013-03-31 05:11:00,
2013-03-30 22:17:00,53.4,27.8,29.83,NNE,23,0.0,3.1,37,0.00,,---,0.00,VWS V14.01,2013-03-31 05:17:00,
2013-03-30 22:23:00,53.2,28.3,29.83,SSW,206,4.9,4.9,38,0.00,,---,0.00,VWS V14.01,2013-03-31 05:23:00,
2013-03-30 22:29:00,53.1,28.1,29.83,NE,37,0.0,8.1,38,0.00,,---,0.00,VWS V14.01,2013-03-31 05:29:00,
2013-03-30 22:35:00,52.7,28.5,29.83,NNE,15,0.0,0.0,39,0.00,,---,0.00,VWS V14.01,2013-03-31 05:35:00,
2013-03-30 22:42:00,52.5,28.3,29.83,North,10,0.0,3.1,39,0.00,,---,0.00,VWS V14.01,2013-03-31 05:42:00,
2013-03-30 22:47:00,52.3,28.8,29.83,SSW,197,2.2,3.6,40,0.00,,---,0.00,VWS V14.01,2013-03-31 05:47:00,
2013-03-30 22:53:00,52.3,28.8,29.83,NNE,27,3.1,3.6,40,0.00,,---,0.00,VWS V14.01,2013-03-31 05:53:00,
2013-03-30 23:00:00,52.2,28.6,29.83,NNW,339,0.0,3.6,40,0.00,,---,0.00,VWS V14.01,2013-03-31 06:00:00,
2013-03-30 23:06:00,52.2,28.6,29.83,NNE,31,0.0,5.4,40,0.00,,---,0.00,VWS V14.01,2013-03-31 06:06:00,
2013-03-30 23:11:00,52.0,28.4,29.83,SSE,157,0.0,8.1,40,0.00,,---,0.00,VWS V14.01,2013-03-31 06:11:00,
2013-03-30 23:17:00,51.8,28.3,29.83,NNE,13,0.0,0.0,40,0.00,,---,0.00,VWS V14.01,2013-03-31 06:17:00,
2013-03-30 23:24:00,51.6,28.1,29.83,NE,55,0.0,3.6,40,0.00,,---,0.00,VWS V14.01,2013-03-31 06:24:00,
2013-03-30 23:30:00,51.4,27.3,29.83,ESE,119,0.0,0.0,39,0.00,,---,0.00,VWS V14.01,2013-03-31 06:30:00,
2013-03-30 23:35:00,51.3,28.4,29.83,NE,38,0.0,0.0,41,0.00,,---,0.00,VWS V14.01,2013-03-31 06:35:00,
2013-03-30 23:41:00,51.1,27.6,29.83,North,7,3.6,6.3,40,0.00,,---,0.00,VWS V14.01,2013-03-31 06:41:00,
2013-03-30 23:48:00,50.7,27.3,29.83,WSW,252,0.0,5.4,40,0.00,,---,0.00,VWS V14.01,2013-03-31 06:48:00,
2013-03-30 23:53:00,50.7,27.3,29.83,ESE,122,3.1,3.1,40,0.00,,---,0.00,VWS V14.01,2013-03-31 06:53:00,
2013-03-30 23:59:00,50.5,27.1,29.83,NE,49,0.0,0.0,40,0.00,,---,0.00,VWS V14.01,2013-03-31 06:59:00,